Location: Laas
(43.4693°N, 0.3073°E)
Time: 15:50:22
(UTC+00:00)

Cosmos 1758 Rocket - Pass Details

Date: 25 October 2020
Orbit: 601 x 637 km, 82.5° (Epoch: 24 November)

Event Time Altitude Azimuth Distance (km) Brightness Sun altitude
Rises 17:56:55 0° 347° (NNW) 2,913 7.1 -11.1°
Reaches altitude 10° 17:59:12 10° 343° (NNW) 1,996 6.3 -11.5°
Maximum altitude 18:03:31 55° 266° (W) 739 4.4 -12.3°
Drops below altitude 10° 18:07:45 10° 188° (S) 1,958 6.3 -13.0°
Sets 18:09:58 0° 184° (S) 2,852 7.1 -13.4°
